CW3642 Weather Reports


Display with metric or nautical units.
time (UTC)temp
F
wind
direction
speed
MPH
gust
MPH
rain 1hr
in
rain 24hr
in
rain mn
in
humidity
%
barometer
mb
20260902170253 71 278 0.0 0.0 0.00 0.09 0.09 87 1012.9
20260902165753 71 161 0.0 0.0 0.00 0.09 0.09 88 1013.0
20260902165253 71 252 0.0 0.0 0.00 0.09 0.09 87 1013.0
20260902164753 71 220 0.0 0.0 0.00 0.09 0.09 88 1012.7
20260902164253 70 200 0.0 0.0 0.00 0.09 0.09 89 1012.7
20260902163753 70 222 0.0 0.0 0.00 0.09 0.09 90 1012.7
20260902163253 70 229 0.0 0.0 0.00 0.09 0.09 91 1012.6
20260902162753 70 229 0.0 0.0 0.00 0.09 0.09 91 1012.9
20260902162253 70 232 0.0 0.0 0.00 0.09 0.09 90 1013.2
20260902161753 70 215 0.0 0.0 0.00 0.09 0.09 91 1013.3
20260902161253 70 213 0.0 0.0 0.00 0.09 0.09 91 1013.3
20260902160753 69 214 0.0 0.0 0.00 0.09 0.09 91 1013.2
20260902155253 69 238 0.0 0.0 0.00 0.09 0.09 93 1013.0
20260902154753 69 254 0.0 0.0 0.00 0.09 0.09 94 1013.1
20260902154253 69 254 0.0 0.0 0.00 0.09 0.09 94 1012.9
20260902153753 69 327 0.0 0.0 0.00 0.09 0.09 94 1012.7
20260902153253 69 288 0.0 0.0 0.00 0.09 0.09 94 1012.9
20260902152753 69 246 0.0 0.0 0.00 0.09 0.09 94 1013.0
20260902152253 69 247 0.0 0.0 0.00 0.09 0.09 94 1013.1
20260902150253 68 286 0.0 0.0 0.00 0.09 0.09 94 1013.5
20260902145753 68 308 0.0 0.0 0.00 0.09 0.09 94 1013.7
20260902145253 68 252 0.0 0.0 0.00 0.09 0.09 94 1013.6
20260902144753 68 301 0.0 0.0 0.00 0.09 0.09 94 1013.7
20260902144253 68 309 0.0 0.0 0.00 0.09 0.09 94 1013.7
20260902143753 68 221 0.0 0.0 0.00 0.09 0.09 94 1013.6
20260902142753 68 268 0.0 0.0 0.00 0.09 0.09 94 1013.0
20260902142253 68 237 0.0 0.0 0.01 0.09 0.09 94 1012.7
20260902141753 68 247 0.0 0.0 0.01 0.09 0.09 93 1012.4
20260902141253 67 248 0.0 0.0 0.01 0.09 0.09 93 1012.1
20260902140753 66 190 0.0 0.0 0.01 0.09 0.09 93 1011.7
20260902135758 66 219 0.0 0.0 0.02 0.09 0.09 94 1011.7
20260902135258 65 233 0.0 0.0 0.03 0.09 0.09 94 1011.6
20260902134758 65 205 0.0 0.0 0.04 0.09 0.09 94 1011.6
20260902133758 65 189 0.0 0.0 0.08 0.09 0.09 94 1010.5
20260902133258 65 123 0.0 0.0 0.08 0.09 0.09 94 1010.5
20260902132758 65 163 0.0 0.0 0.09 0.09 0.09 94 1010.7
20260902132258 65 65 0.0 0.0 0.08 0.08 0.08 94 1011.7
20260902131758 66 82 0.0 0.0 0.08 0.08 0.08 94 1012.5
20260902131258 66 12 0.0 0.0 0.08 0.08 0.08 94 1012.5
20260902130758 66 344 0.0 0.0 0.08 0.08 0.08 94 1013.0
20260902130258 66 238 0.0 0.0 0.08 0.08 0.08 94 1013.6
20260902125758 66 225 0.0 0.0 0.07 0.07 0.07 94 1013.6
20260902125258 66 277 0.0 0.0 0.06 0.06 0.06 94 1014.7
20260902124758 66 313 0.0 0.0 0.05 0.05 0.05 94 1014.9
20260902124258 66 211 0.0 0.0 0.04 0.04 0.04 94 1015.2
20260902123758 66 229 0.0 0.0 0.01 0.01 0.01 94 1015.8
20260902123258 66 232 0.0 0.0 0.01 0.01 0.01 94 1015.7
20260902122757 67 233 0.0 0.0 0.00 0.00 0.00 94 1015.5
20260902122258 67 271 0.0 0.0 0.00 0.00 0.00 93 1015.5
20260902121758 67 221 0.0 0.0 0.00 0.00 0.00 93 1015.5
20260902121258 67 243 0.0 0.0 0.00 0.00 0.00 93 1015.2
20260902120758 67 240 0.0 0.0 0.00 0.00 0.00 93 1014.8
20260902115757 66 211 0.0 0.0 0.00 0.00 0.00 93 1014.2
20260902115258 65 221 0.0 0.0 0.00 0.00 0.00 94 1014.1
20260902114757 65 236 0.0 0.0 0.00 0.00 0.00 94 1013.6
20260902114257 65 246 0.0 0.0 0.00 0.00 0.00 94 1013.2
20260902113757 65 246 0.0 0.0 0.00 0.00 0.00 94 1013.1
20260902113258 65 246 0.0 0.0 0.00 0.00 0.00 94 1012.8
20260902112757 65 246 0.0 0.0 0.00 0.00 0.00 94 1012.7
20260902112258 65 246 0.0 0.0 0.00 0.00 0.00 94 1012.6
20260902111757 65 246 0.0 0.0 0.00 0.00 0.00 94 1012.7
20260902111257 65 246 0.0 0.0 0.00 0.00 0.00 94 1012.7
20260902110758 65 246 0.0 0.0 0.00 0.00 0.00 94 1012.5
20260902110257 65 246 0.0 0.0 0.00 0.00 0.00 94 1012.4
20260902105758 65 246 0.0 0.0 0.00 0.00 0.00 94 1012.2
20260902104757 65 246 0.0 0.0 0.00 0.00 0.00 94 1011.8
20260902104257 65 246 0.0 0.0 0.00 0.00 0.00 94 1011.8
20260902103758 65 246 0.0 0.0 0.00 0.00 0.00 94 1011.8
20260902103258 65 246 0.0 0.0 0.00 0.00 0.00 94 1011.8
20260902102757 65 246 0.0 0.0 0.00 0.00 0.00 94 1011.8
20260902102257 65 246 0.0 0.0 0.00 0.00 0.00 94 1011.8
20260902101757 65 246 0.0 0.0 0.00 0.00 0.00 94 1012.0
20260902101257 65 246 0.0 0.0 0.00 0.00 0.00 94 1011.9
20260902095755 66 246 0.0 0.0 0.00 0.00 0.00 94 1012.5
20260902094756 66 246 0.0 0.0 0.00 0.00 0.00 94 1012.6
20260902094256 66 246 0.0 0.0 0.00 0.00 0.00 94 1012.7
20260902093756 66 246 0.0 0.0 0.00 0.00 0.00 94 1012.8
20260902092755 67 268 0.0 0.0 0.00 0.00 0.00 94 1012.8
20260902091756 67 268 0.0 0.0 0.00 0.00 0.00 94 1012.7
20260902091256 67 268 0.0 0.0 0.00 0.00 0.00 94 1012.4
20260902090756 67 268 0.0 0.0 0.00 0.00 0.00 94 1012.3
20260902090256 68 268 0.0 0.0 0.00 0.00 0.00 94 1012.3
20260902085756 68 268 0.0 0.0 0.00 0.00 0.00 94 1012.0
20260902085256 68 268 0.0 0.0 0.00 0.00 0.00 94 1012.1
20260902084756 68 268 0.0 0.0 0.00 0.00 0.00 94 1011.9
20260902084256 69 268 0.0 0.0 0.00 0.00 0.00 94 1012.0
20260902083756 69 268 0.0 0.0 0.00 0.00 0.00 94 1012.0
20260902083256 69 268 0.0 0.0 0.00 0.00 0.00 94 1012.0
20260902082756 69 268 0.0 0.0 0.00 0.00 0.00 94 1012.0
20260902082256 70 268 0.0 0.0 0.00 0.00 0.00 94 1012.0
20260902080256 71 269 0.0 0.0 0.00 0.00 0.00 94 1012.2
20260902075756 71 269 0.0 0.0 0.00 0.00 0.00 94 1012.2
20260902075256 71 269 0.0 0.0 0.00 0.00 0.00 94 1012.1
20260902074756 71 269 0.0 0.0 0.00 0.00 0.00 94 1012.0
20260902073256 71 271 0.0 0.0 0.00 0.00 0.00 94 1012.2
20260902072756 72 271 0.0 0.0 0.00 0.00 0.00 94 1012.3
20260902072256 72 236 0.0 0.0 0.00 0.00 0.00 94 1012.3
20260902071756 72 249 0.0 0.0 0.00 0.00 0.00 94 1012.3
20260902071256 72 284 0.0 0.0 0.00 0.00 0.00 94 1012.4
20260902070756 72 190 0.0 0.0 0.00 0.00 0.00 94 1012.4
20260902070255 72 273 0.0 0.0 0.00 0.00 0.00 94 1012.4
20260902065255 72 262 0.0 0.0 0.00 0.00 0.00 94 1012.3
20260902064756 72 207 0.0 0.0 0.00 0.00 0.00 94 1012.4
20260902062755 73 226 0.0 0.0 0.00 0.00 0.00 93 1012.0
20260902062255 73 221 0.0 0.0 0.00 0.00 0.00 94 1012.0
20260902061755 73 221 0.0 0.0 0.00 0.00 0.00 94 1011.9
20260902061255 73 221 0.0 0.0 0.00 0.00 0.00 94 1012.0
20260902060756 73 227 0.0 0.0 0.00 0.00 0.00 93 1011.9
20260902055756 73 220 0.0 0.0 0.00 0.00 0.00 93 1011.8
20260902055256 73 209 0.0 0.0 0.00 0.00 0.00 93 1011.9
20260902054756 73 235 0.0 0.0 0.00 0.00 0.00 93 1011.9
20260902054256 73 222 0.0 0.0 0.00 0.00 0.00 93 1011.8
20260902053756 73 209 0.0 0.0 0.00 0.00 0.00 93 1011.8
20260902053256 73 248 0.0 0.0 0.00 0.00 0.00 93 1011.8
20260902052756 73 204 0.0 0.0 0.00 0.00 0.00 93 1011.7
20260902052256 73 225 0.0 0.0 0.00 0.00 0.00 93 1011.6
20260902051756 73 215 0.0 0.0 0.00 0.00 0.00 93 1011.7
20260902051256 73 169 0.0 0.0 0.00 0.00 0.00 93 1011.6
20260902050756 73 267 0.0 0.0 0.00 0.00 0.00 93 1011.7
20260902050256 73 206 0.0 0.0 0.00 0.00 0.00 93 1011.7
20260902045756 73 221 0.0 0.0 0.00 0.00 0.00 93 1011.7
20260902044256 73 232 0.0 0.0 0.00 0.00 0.00 94 1011.7
20260902043756 73 225 0.0 0.0 0.00 0.00 0.00 93 1011.6
20260902043256 73 242 0.0 0.0 0.00 0.00 0.00 93 1011.6
20260902042756 73 157 0.0 0.0 0.00 0.00 0.00 94 1011.7
20260902041756 73 224 0.0 0.0 0.00 0.00 0.00 94 1011.8
20260902041256 73 180 0.0 0.0 0.00 0.00 0.00 94 1011.7
20260902040256 73 205 0.0 0.0 0.00 0.00 0.00 94 1011.8
20260902035756 73 205 0.0 0.0 0.00 0.00 0.00 93 1011.7
20260902035256 73 205 0.0 0.0 0.00 0.00 0.00 93 1011.6
20260902034756 73 189 0.0 0.0 0.00 0.00 0.00 93 1011.6
20260902034256 73 207 0.0 0.0 0.00 0.00 0.00 93 1011.7
20260902033256 72 200 0.0 0.0 0.00 0.00 0.00 93 1011.7
20260902032756 72 182 0.0 0.0 0.00 0.00 0.00 93 1011.7
20260902032256 72 189 0.0 0.0 0.00 0.00 0.00 93 1011.8
20260902031756 71 241 0.0 0.0 0.00 0.00 0.00 94 1011.8
20260902030756 71 223 0.0 0.0 0.00 0.00 0.00 94 1011.9
20260902030256 71 224 0.0 0.0 0.00 0.00 0.00 94 1011.9
20260902025756 71 171 0.0 0.0 0.00 0.00 0.00 93 1012.0
20260902025256 71 221 0.0 0.0 0.00 0.00 0.00 93 1011.8
20260902024756 71 221 0.0 0.0 0.00 0.00 0.00 93 1011.7
20260902024256 71 221 0.0 0.0 0.00 0.00 0.00 93 1011.8
20260902023756 71 221 0.0 0.0 0.00 0.00 0.00 93 1011.8
20260902023256 71 221 0.0 0.0 0.00 0.00 0.00 93 1011.8
20260902022756 71 221 0.0 0.0 0.00 0.00 0.00 92 1011.7
20260902022256 71 221 0.0 0.0 0.00 0.00 0.00 92 1011.7
20260902021756 72 221 0.0 0.0 0.00 0.00 0.00 92 1011.7
20260902021256 72 221 0.0 0.0 0.00 0.00 0.00 92 1011.7
20260902020756 72 221 0.0 0.0 0.00 0.00 0.00 92 1011.8
20260902015800 72 221 0.0 0.0 0.00 0.00 0.00 91 1011.8
20260902015300 73 221 0.0 0.0 0.00 0.00 0.00 91 1011.6
20260902014800 73 221 0.0 0.0 0.00 0.00 0.00 90 1011.6
20260902014300 73 221 0.0 0.0 0.00 0.00 0.00 90 1011.5
20260902013800 73 221 0.0 0.0 0.00 0.00 0.00 90 1011.5
20260902012800 74 221 0.0 0.0 0.00 0.00 0.00 90 1011.6
20260902012300 74 221 0.0 0.0 0.00 0.00 0.00 89 1011.6
20260902011800 74 221 0.0 0.0 0.00 0.00 0.00 89 1011.6
20260902011300 75 221 0.0 0.0 0.00 0.00 0.00 88 1011.8
20260902010300 75 221 0.0 0.0 0.00 0.00 0.00 88 1011.6
20260902005300 76 221 0.0 0.0 0.00 0.00 0.00 86 1011.5
20260902004300 77 221 0.0 0.0 0.00 0.00 0.00 85 1011.5
20260902003800 77 221 0.0 0.0 0.00 0.00 0.00 84 1011.6
20260902003300 77 221 0.0 0.0 0.00 0.00 0.00 84 1011.5
20260902002800 78 221 0.0 0.0 0.00 0.00 0.00 84 1011.6
20260902002300 78 221 0.0 0.0 0.00 0.00 0.00 83 1011.5
20260902001800 79 221 0.0 0.0 0.00 0.00 0.00 82 1011.6
20260902001300 79 221 0.0 0.0 0.00 0.00 0.00 82 1011.6
20260902000800 79 221 0.0 0.0 0.00 0.00 0.00 81 1011.6
20260902000300 80 221 0.0 0.0 0.00 0.00 0.00 80 1011.6
20260901235800 80 221 0.0 0.0 0.00 0.00 0.00 79 1011.6
20260901235300 81 221 0.0 0.0 0.00 0.00 0.00 79 1011.4
20260901234800 81 221 0.0 0.0 0.00 0.00 0.00 78 1011.3
20260901234300 81 221 0.0 0.0 0.00 0.00 0.00 77 1011.4
20260901233800 82 221 0.0 0.0 0.00 0.00 0.00 76 1011.4
20260901233300 82 221 0.0 0.0 0.00 0.00 0.00 75 1011.3
20260901232300 82 243 0.0 0.0 0.00 0.00 0.00 74 1011.3
20260901231800 83 223 0.0 0.0 0.00 0.00 0.00 73 1011.5
20260901231300 83 218 0.0 0.0 0.00 0.00 0.00 73 1011.6
20260901230300 83 233 0.0 0.0 0.00 0.00 0.00 72 1011.6
20260901225800 84 215 0.0 0.0 0.00 0.00 0.00 72 1011.6
20260901224800 84 226 0.0 0.0 0.00 0.00 0.00 71 1011.7
20260901224300 84 234 0.0 0.0 0.00 0.00 0.00 71 1011.7
20260901223800 85 225 0.0 0.0 0.00 0.00 0.00 70 1011.8
20260901223300 85 203 0.0 0.0 0.00 0.00 0.00 69 1011.8
20260901222800 86 232 0.0 0.0 0.00 0.00 0.00 69 1011.8
20260901222300 86 234 0.0 0.0 0.00 0.00 0.00 69 1011.8
20260901220800 88 263 0.0 0.0 0.00 0.00 0.00 65 1011.9
20260901214748 90 243 0.0 0.0 0.00 0.00 0.00 61 1011.9
20260901214248 90 263 0.0 0.0 0.00 0.00 0.00 62 1011.9
20260901213748 90 220 0.0 0.0 0.00 0.00 0.00 61 1012.0
20260901213248 90 245 0.0 0.0 0.00 0.00 0.00 61 1012.0
20260901212748 90 223 0.0 0.0 0.00 0.00 0.00 60 1012.1
20260901212248 90 230 0.0 0.0 0.00 0.00 0.00 61 1012.0
20260901211748 90 228 0.0 0.0 0.00 0.00 0.00 60 1012.0
20260901211248 90 238 0.0 0.0 0.00 0.00 0.00 60 1012.1
20260901210749 90 219 0.0 0.0 0.00 0.00 0.00 59 1012.1
20260901210248 90 234 0.0 0.0 0.00 0.00 0.00 59 1012.1
20260901205748 90 277 0.0 0.0 0.00 0.00 0.00 59 1012.1
20260901205249 90 269 0.0 0.0 0.00 0.00 0.00 57 1012.2
20260901204249 90 231 0.0 0.0 0.00 0.00 0.00 56 1012.2
20260901203748 90 223 0.0 0.0 0.00 0.00 0.00 56 1012.3
20260901203248 90 246 0.0 0.0 0.00 0.00 0.00 57 1012.2
20260901202749 90 271 0.0 0.0 0.00 0.00 0.00 57 1012.2
20260901202248 90 225 0.0 0.0 0.00 0.00 0.00 56 1012.3
20260901201748 89 183 0.0 0.0 0.00 0.00 0.00 55 1012.4
20260901201248 89 223 0.0 0.0 0.00 0.00 0.00 54 1012.5
20260901200248 89 242 0.0 0.0 0.00 0.00 0.00 57 1012.5
20260901195748 88 244 0.0 0.0 0.00 0.00 0.00 56 1012.5
20260901195248 88 289 0.0 0.0 0.00 0.00 0.00 57 1012.5
20260901194248 88 154 0.0 0.0 0.00 0.00 0.00 56 1012.8
20260901193748 88 251 0.0 0.0 0.00 0.00 0.00 57 1012.8
20260901193249 89 286 0.0 0.0 0.00 0.00 0.00 61 1012.9
20260901192748 88 309 0.0 0.0 0.00 0.00 0.00 58 1013.0
20260901192248 88 233 0.0 0.0 0.00 0.00 0.00 58 1013.0
20260901191748 87 252 0.0 0.0 0.00 0.00 0.00 61 1013.0
20260901190748 88 34 0.0 0.0 0.00 0.00 0.00 59 1013.1
20260901190248 88 238 0.0 0.0 0.00 0.00 0.00 59 1013.2
20260901185749 88 286 0.0 0.0 0.00 0.00 0.00 59 1013.3
20260901185248 87 242 0.0 0.0 0.00 0.00 0.00 65 1013.3
20260901184748 87 202 0.0 0.0 0.00 0.00 0.00 65 1013.4
20260901184248 87 265 0.0 0.0 0.00 0.00 0.00 62 1013.5
20260901183748 87 196 0.0 0.0 0.00 0.00 0.00 66 1013.5
20260901183248 87 173 0.0 0.0 0.00 0.00 0.00 66 1013.5
20260901182748 87 221 0.0 0.0 0.00 0.00 0.00 66 1013.6
20260901181748 87 193 0.0 0.0 0.00 0.00 0.00 67 1013.7
20260901175759 87 216 0.0 0.0 0.00 0.00 0.00 66 1013.7
20260901175259 87 222 0.0 0.0 0.00 0.00 0.00 67 1013.9
20260901174759 87 244 0.0 0.0 0.00 0.00 0.00 66 1013.9
20260901174259 87 211 0.0 0.0 0.00 0.00 0.00 66 1013.9
20260901173759 86 187 0.0 0.0 0.00 0.00 0.00 66 1013.8
20260901172245 86 299 0.0 0.0 0.00 0.00 0.00 71 1013.9
20260901171745 85 216 0.0 0.0 0.00 0.00 0.00 72 1013.9
20260901171245 84 82 0.0 0.0 0.00 0.00 0.00 70 1013.7
20260901170745 84 181 0.0 0.0 0.00 0.00 0.00 70 1013.8